GEFSMA_con_probscp_090.txt.gz
Probability
62 57 55 51 43 38 35 30 23 16 13 12 9 5 6 7 6 9 22 33 31 21 12 6 4 6 7 8 11 14 15 13 10 7 6 4 4 3 1 0 0 0 0
59 57 55 49 42 38 36 29 21 17 17 15 9 5 5 6 5 7 15 23 24 18 12 7 7 10 12 12 13 16 17 15 14 12 9 5 4 2 1 1 1 0 0
53 55 55 49 42 37 35 29 20 18 19 16 10 6 6 6 5 5 7 13 17 14 10 8 10 16 19 17 17 19 19 18 19 20 15 9 5 2 1 1 3 3 1
49 51 52 48 40 34 30 25 20 17 17 14 9 5 5 7 6 3 3 6 11 11 7 8 12 18 21 21 21 22 22 21 23 24 21 14 9 4 1 1 3 4 3
44 45 44 41 34 28 24 21 17 15 14 11 6 3 3 5 4 1 0 2 6 7 6 8 13 18 21 22 24 25 24 23 24 26 24 19 14 8 3 1 1 2 2
37 37 36 33 28 23 22 20 16 13 11 7 4 2 1 1 1 0 0 0 2 3 4 7 13 18 19 19 21 23 23 24 25 25 23 21 17 12 7 3 0 0 1
25 28 30 29 25 21 22 19 14 10 8 6 4 2 1 0 0 0 0 0 1 1 2 5 11 16 17 14 14 17 20 25 27 25 24 23 20 16 12 6 1 0 0
15 18 24 26 23 19 18 15 10 7 6 5 4 2 1 0 0 0 0 1 2 1 1 2 5 10 13 13 11 10 14 22 25 26 26 24 20 18 14 10 4 1 0
11 14 19 21 19 16 13 10 7 6 5 5 4 3 1 0 0 0 0 1 2 1 0 0 1 3 6 9 8 5 8 14 18 23 26 23 17 13 12 11 8 5 3
9 12 15 17 18 16 13 9 7 5 4 5 5 4 3 1 0 0 0 1 2 1 0 0 0 0 1 3 4 3 3 5 8 16 22 21 15 10 9 11 11 10 9
7 8 11 15 19 18 16 15 12 8 6 6 8 8 6 4 2 1 1 1 1 1 0 0 0 0 0 1 2 2 1 1 3 8 13 15 14 11 9 10 11 12 13
7 7 8 12 17 18 20 22 21 15 13 14 16 16 14 10 6 3 2 1 0 0 0 0 0 0 0 0 1 1 1 0 0 2 4 8 10 10 9 10 11 12 13
7 7 7 9 12 14 17 22 24 22 21 23 24 25 24 18 11 7 3 1 0 1 1 0 0 0 0 0 0 0 0 0 0 0 1 2 3 5 7 9 12 13 14
5 6 6 6 6 6 8 13 17 21 23 24 24 27 29 25 20 14 7 4 3 3 2 1 0 1 1 1 0 0 0 0 0 0 0 0 1 2 3 5 8 9 9
4 5 6 5 3 1 2 4 8 14 20 22 23 26 28 30 29 24 18 13 10 7 5 3 3 2 2 1 1 1 1 0 0 0 0 0 1 0 0 1 2 3 2
5 5 5 4 2 1 0 1 2 6 12 17 21 23 25 29 32 31 29 25 20 14 11 10 9 7 4 1 1 2 3 2 0 0 0 0 0 0 0 0 0 0 0
4 4 3 2 1 0 0 0 0 2 4 8 12 14 18 25 29 30 31 33 30 24 19 18 16 12 6 4 3 3 3 3 2 0 0 0 0 0 0 0 0 0 0
2 1 1 0 1 1 0 0 0 0 0 1 4 7 12 19 24 25 27 30 29 27 23 21 21 17 9 6 5 3 1 2 2 1 0 0 0 0 0 0 0 0 0
1 0 0 0 1 2 1 0 0 0 0 0 1 4 7 12 18 21 21 22 22 21 20 20 21 18 10 6 3 2 0 0 1 0 0 0 0 0 0 0 0 0 0
1 1 0 0 1 1 1 0 0 0 0 0 0 1 3 6 10 13 15 18 19 18 17 18 17 15 10 5 2 1 0 0 0 0 0 0 0 0 0 0 0 0 0
2 2 1 0 1 1 1 1 0 0 0 0 0 0 1 2 4 6 8 12 15 16 16 16 15 12 7 4 3 2 1 0 0 0 0 0 0 0 0 0 0 0 0
3 2 1 0 1 0 0 0 0 0 0 0 0 0 0 0 1 1 2 4 7 10 12 13 14 13 8 4 4 4 2 0 0 1 0 0 0 0 0 0 0 0 0
2 1 0 0 0 0 0 0 0 0 1 0 0 0 0 0 0 0 1 1 1 3 6 10 13 13 10 7 7 5 3 2 2 2 1 0 0 0 0 0 0 0 0
1 0 0 0 0 0 0 0 0 0 0 0 0 0 0 0 0 0 1 2 1 0 2 5 8 9 8 8 8 7 5 4 4 3 1 0 0 0 0 0 0 0 0
0 0 0 0 0 0 0 0 0 0 0 0 0 0 0 0 0 0 1 2 1 0 0 1 2 3 3 4 5 6 5 4 3 3 2 0 0 0 0 0 0 0 0
0 0 0 0 0 0 0 0 0 0 0 0 0 0 0 0 0 0 1 2 1 1 1 0 0 0 0 1 2 4 4 2 2 2 1 0 0 0 0 0 0 0 0

GEFSMA_con_probscp_096.txt.gz
Probability
85 84 84 81 75 71 69 63 58 57 53 40 31 30 28 20 14 18 30 46 56 58 55 44 30 18 11 8 8 8 8 6 3 1 0 0 0 1 1 1 0 0 0
85 83 81 79 75 75 75 70 65 62 57 46 37 32 30 24 20 23 31 42 49 48 47 41 29 19 14 10 9 8 8 6 5 3 1 0 0 2 3 2 1 1 0
84 82 79 77 77 78 77 72 66 62 57 51 42 33 31 30 27 27 30 35 36 34 34 34 30 24 19 15 11 10 9 9 8 7 5 3 1 2 4 4 3 2 1
79 77 74 73 76 78 73 66 60 55 52 48 40 31 29 30 28 25 25 28 28 25 24 26 29 27 22 18 15 13 13 13 13 12 11 7 4 4 4 4 3 1 0
68 66 61 62 66 69 66 58 52 50 47 40 31 24 25 27 26 22 20 23 23 20 17 18 21 21 19 17 18 20 19 19 18 16 15 13 9 7 5 3 2 1 0
52 49 46 47 50 54 55 49 45 46 42 34 22 18 22 23 20 18 16 16 15 13 13 16 17 15 11 12 18 24 25 23 19 18 18 17 15 11 7 4 1 1 1
35 32 30 33 36 39 42 41 40 39 35 28 20 16 15 15 13 12 11 10 6 6 11 17 19 15 9 8 14 21 25 22 20 20 20 20 19 16 13 8 3 0 0
24 20 19 21 23 26 31 34 35 31 26 22 18 12 9 8 7 7 7 6 4 5 8 13 18 17 13 10 9 14 17 19 21 24 23 20 19 19 18 13 5 1 1
19 17 15 15 16 19 23 26 26 23 20 17 14 10 9 9 8 5 4 4 5 5 5 7 12 16 15 12 9 7 9 13 19 22 21 19 17 16 15 12 6 2 1
15 16 16 16 17 18 19 20 20 20 17 14 12 13 15 15 10 4 2 3 6 6 4 3 7 13 14 12 9 5 3 6 10 14 14 15 15 12 9 8 5 3 2
13 14 14 16 19 19 18 17 19 21 20 16 14 18 20 18 13 7 2 3 6 7 5 4 7 12 14 12 8 4 1 1 3 5 6 9 11 8 5 4 4 3 3
12 11 11 13 16 18 18 17 18 22 22 21 21 22 23 20 17 12 6 3 4 7 8 7 7 11 13 10 6 3 1 0 0 1 2 4 4 4 2 2 2 3 4
13 13 12 11 13 14 16 16 17 18 20 21 22 24 24 23 21 18 12 7 5 7 10 9 9 9 10 8 4 1 0 0 0 0 0 1 1 0 0 0 1 2 3
13 14 14 14 13 12 13 14 14 14 14 14 16 21 24 25 23 21 19 16 11 9 9 10 12 12 12 10 5 1 0 0 0 0 0 0 0 0 0 0 0 1 1
11 12 13 14 14 12 11 11 11 11 11 9 11 16 20 23 24 23 24 23 17 13 10 13 18 18 16 11 4 1 0 0 0 0 0 0 0 0 0 0 0 0 0
10 9 9 10 12 13 12 10 9 9 9 7 7 10 14 18 22 25 25 24 20 16 13 17 25 29 23 12 4 1 1 0 0 0 0 0 0 0 0 0 0 0 0
8 7 5 5 8 11 10 7 5 6 6 5 4 5 8 11 16 20 22 22 20 18 15 17 26 35 33 22 10 4 2 0 0 0 0 0 0 0 0 0 0 0 0
5 4 3 2 3 4 5 3 2 3 4 3 3 3 3 5 9 13 17 17 16 16 15 15 20 29 33 29 17 8 3 0 0 0 0 0 0 0 0 0 0 0 0
2 1 1 1 1 1 1 1 2 3 3 2 2 2 1 2 5 8 11 12 10 11 13 13 15 20 24 23 18 10 3 0 0 0 0 0 0 0 0 0 0 0 0
2 1 0 0 1 2 1 2 3 4 3 1 2 1 1 2 4 4 5 7 7 7 9 10 12 16 17 15 12 7 3 1 1 0 0 0 0 0 0 0 0 0 0
1 1 0 0 1 2 1 2 3 3 3 1 1 1 1 1 1 1 2 3 4 5 6 6 8 11 13 10 6 3 2 2 2 1 1 1 0 0 0 0 0 0 0
1 1 0 0 1 1 1 1 1 2 3 2 1 1 0 0 0 0 0 1 1 2 3 2 3 5 7 7 4 2 2 3 3 3 3 2 1 0 0 0 0 0 0
1 1 0 0 1 1 0 0 1 2 2 2 1 1 0 0 0 0 0 0 0 1 1 1 0 2 4 5 5 4 4 4 4 6 5 4 3 1 0 0 0 0 0
1 0 0 0 0 0 0 0 1 1 1 1 1 1 1 1 0 0 0 0 0 0 0 0 0 0 1 3 4 3 2 2 3 6 6 5 3 1 0 0 0 0 0
0 0 1 0 0 0 0 0 0 0 0 0 0 0 1 1 0 0 0 0 1 1 1 0 0 0 0 1 1 1 1 0 1 3 5 5 2 1 0 0 0 0 0
0 0 1 0 0 0 0 0 0 0 0 0 0 0 0 1 0 0 0 0 1 2 1 0 0 0 0 0 0 1 1 1 0 2 4 5 2 0 0 0 0 0 0

GEFSMA_con_probscp_102.txt.gz
Probability
23 18 15 21 33 42 44 43 42 40 35 25 12 3 1 1 2 1 1 9 24 39 43 35 23 17 12 8 6 5 4 3 1 0 0 0 0 0 0 0 0 0 0
26 22 17 18 25 34 37 38 39 36 31 23 13 5 2 3 3 2 2 8 21 32 38 34 25 19 12 9 8 6 5 4 2 1 0 0 0 0 0 0 0 0 0
27 23 16 14 16 21 25 28 30 29 25 19 13 8 5 5 4 3 2 6 13 22 28 30 29 25 17 12 10 8 7 6 4 1 0 0 0 0 0 0 0 0 0
22 18 13 11 11 12 15 19 21 22 21 18 14 9 7 6 5 3 3 4 7 12 16 22 27 27 23 17 12 10 10 9 7 4 1 0 0 0 0 0 0 0 0
15 12 9 9 9 9 11 13 14 16 18 18 14 8 6 6 4 3 3 4 4 5 7 12 17 19 21 21 18 15 14 12 10 7 4 1 0 0 0 0 0 0 0
10 8 6 6 7 8 9 10 10 11 13 14 12 6 4 4 3 2 3 3 3 2 3 6 9 11 15 20 23 22 18 13 11 10 8 4 1 0 0 0 0 0 0
6 4 3 4 4 6 7 7 7 7 8 9 8 5 2 1 1 1 2 2 2 1 2 3 6 7 9 14 19 20 18 13 11 12 11 7 3 1 0 0 0 0 0
4 4 3 3 3 4 5 5 6 5 5 6 6 3 1 0 0 0 1 1 1 1 2 3 4 4 6 7 8 11 13 12 11 12 11 8 5 2 1 0 0 0 0
4 3 3 3 3 3 3 4 4 4 4 4 4 2 0 0 0 0 0 0 0 1 2 3 2 2 3 3 2 4 8 10 13 13 11 9 6 4 3 2 1 1 0
3 2 2 3 3 3 3 3 3 3 3 3 3 1 0 0 0 0 0 0 0 0 1 1 1 1 1 1 1 2 4 7 10 13 13 10 8 7 5 3 2 2 1
2 2 2 2 2 2 3 3 3 2 2 2 1 1 0 0 0 0 0 0 0 0 0 0 0 0 0 0 0 0 1 2 4 8 11 10 10 9 6 4 3 3 2
1 2 2 1 1 1 1 2 1 1 1 1 0 0 0 0 0 0 0 0 0 0 0 0 0 0 0 0 0 0 0 0 1 2 4 6 7 7 7 5 3 4 4
0 1 1 0 0 0 0 0 0 0 0 0 0 0 0 0 0 0 0 0 0 0 0 0 0 0 0 0 0 0 0 0 0 0 1 2 3 3 4 4 3 3 4
0 0 0 0 0 0 0 0 0 0 0 0 0 0 0 0 0 0 0 0 0 0 0 0 0 0 0 0 0 0 0 0 0 0 0 0 0 1 1 1 1 1 1
0 0 0 0 0 0 0 0 0 0 0 0 0 0 0 0 0 0 0 0 0 0 0 0 0 0 0 0 0 0 0 0 0 0 0 0 0 0 0 0 0 0 0
0 0 0 0 0 0 0 0 0 0 0 0 0 0 0 0 0 0 0 0 0 0 0 0 0 0 0 0 0 0 0 0 0 0 0 0 0 0 0 0 0 0 0
0 0 0 0 0 0 0 0 0 0 0 0 0 0 0 0 0 0 0 0 0 0 0 0 0 0 1 0 0 0 0 0 0 0 0 0 0 0 0 0 0 0 0
0 0 0 0 0 0 0 0 0 0 0 0 0 0 0 0 0 0 0 0 0 0 0 0 0 0 0 0 0 0 0 0 0 0 0 0 0 0 0 0 0 0 0
0 0 0 0 0 0 0 0 0 0 0 0 0 0 0 0 0 0 0 0 0 0 0 0 0 0 0 0 0 0 0 0 0 0 0 0 0 0 0 0 0 0 0
0 0 0 0 0 0 0 0 0 0 0 0 0 0 0 0 0 0 0 0 0 0 0 0 0 0 0 0 0 0 0 0 0 0 0 0 0 0 0 0 0 0 0
0 0 0 0 0 0 0 0 0 0 0 0 0 0 0 0 0 0 0 0 0 0 0 1 0 0 0 0 0 0 0 0 0 0 0 0 0 0 0 0 0 0 0
0 0 0 0 0 0 0 0 0 0 0 0 0 0 0 0 0 0 0 0 0 0 0 0 0 0 0 0 0 0 0 0 0 0 0 0 0 0 0 0 0 0 0
0 0 0 0 0 0 0 0 0 0 0 0 0 0 0 0 0 0 0 0 0 0 0 0 0 0 0 0 0 0 0 0 0 0 0 0 0 0 0 0 0 0 0
0 0 0 0 0 0 0 0 0 0 0 0 0 0 0 0 0 0 0 0 0 0 0 0 0 0 0 0 0 0 0 0 0 0 0 0 0 0 0 0 0 0 0
0 0 0 0 0 0 0 0 0 0 0 0 0 0 0 0 0 0 0 0 0 0 0 0 0 0 0 0 0 0 0 0 0 0 0 0 0 0 0 0 0 0 0
0 0 0 0 0 0 0 0 0 0 0 0 0 0 0 0 0 0 0 0 0 0 0 0 0 0 0 0 0 0 0 0 0 0 0 0 0 0 0 0 0 0 0

GEFSMA_con_probscp_108.txt.gz
Probability
35 34 31 27 23 21 18 15 12 13 20 28 28 21 13 7 4 2 1 1 3 4 5 3 1 0 1 1 1 1 1 1 2 1 0 0 0 0 0 0 0 0 0
32 31 30 27 22 18 15 13 13 14 18 25 27 24 18 12 7 5 3 3 4 6 7 5 3 2 2 2 2 2 2 2 2 1 1 0 0 0 0 0 0 0 0
25 25 24 22 18 14 12 13 14 15 17 19 21 20 19 16 10 7 5 4 4 7 9 8 7 8 8 6 4 5 4 3 2 2 1 0 0 0 0 0 0 0 0
16 15 14 13 11 9 10 12 14 15 14 13 11 11 14 13 9 6 5 4 4 7 10 10 11 15 17 14 11 8 7 6 5 3 2 1 0 0 0 0 0 0 0
9 9 8 6 5 5 7 8 10 10 9 8 7 7 9 8 6 4 3 4 4 6 9 12 16 21 23 22 19 15 11 11 9 6 3 2 1 0 0 0 0 0 0
5 5 5 4 3 3 4 5 5 6 6 7 9 8 6 5 5 4 3 4 5 5 7 13 21 25 24 24 23 20 16 15 14 10 6 4 3 1 1 0 0 0 0
4 4 4 3 3 3 3 3 3 4 5 7 9 8 5 3 3 3 3 4 4 4 5 11 20 26 27 23 20 20 19 18 18 14 8 6 5 4 2 1 0 0 0
3 3 3 3 3 3 3 3 3 3 3 4 6 6 3 2 2 2 2 2 2 3 4 7 13 21 26 23 16 14 16 17 18 14 11 10 9 6 4 2 1 0 0
3 3 3 3 3 3 3 3 3 3 3 3 4 4 2 1 2 2 1 0 1 2 3 5 8 14 19 19 14 9 9 11 14 16 16 16 13 7 3 2 1 0 0
3 3 3 3 3 1 1 2 3 3 3 3 3 3 1 0 1 2 1 1 0 1 2 4 7 10 12 13 11 7 5 5 9 15 18 19 17 11 4 2 1 0 0
2 2 3 3 2 1 0 1 1 2 2 2 3 2 1 0 0 0 1 1 0 0 1 2 4 6 8 9 8 6 4 3 5 10 14 17 19 15 7 3 1 0 0
1 1 1 2 2 1 0 0 0 1 1 1 1 1 1 0 0 0 0 0 0 0 0 1 2 3 6 7 6 5 3 3 3 5 9 12 15 14 9 4 1 1 1
0 0 0 1 1 0 0 0 0 0 0 0 0 0 0 0 0 0 0 0 0 0 0 0 0 2 4 6 6 3 2 1 1 2 4 7 10 11 10 6 4 4 5
0 0 0 0 0 0 0 0 0 0 0 0 0 0 0 0 0 0 0 0 0 0 0 0 0 1 3 5 4 2 1 1 0 1 1 3 6 8 9 8 6 6 8
0 0 0 0 0 0 0 0 0 0 0 0 0 0 0 0 0 0 0 0 0 0 0 0 0 0 1 2 1 1 2 1 0 0 0 1 2 3 5 5 4 4 5
0 0 0 0 0 0 0 0 0 0 0 0 0 0 0 0 0 0 0 0 0 0 0 0 0 0 0 0 0 0 1 0 0 0 0 0 0 0 1 1 1 1 1
0 0 0 0 0 0 0 0 0 0 0 0 0 0 0 0 0 0 0 0 0 0 0 0 0 0 0 0 0 0 0 0 0 0 0 0 0 0 0 0 0 0 0
0 0 0 0 0 0 0 0 0 0 0 0 0 0 0 0 0 0 0 0 0 0 0 0 0 0 0 0 0 1 1 1 1 0 0 0 0 0 0 0 0 0 0
0 0 0 0 0 0 0 0 0 0 0 0 0 0 0 0 0 0 0 0 0 0 0 0 0 0 0 0 1 1 1 1 1 0 0 0 0 0 0 0 0 0 0
0 0 0 0 0 0 0 0 0 0 0 0 0 0 0 0 0 0 0 0 0 0 0 0 0 0 0 0 1 1 1 1 0 0 0 0 0 0 0 0 0 0 0
0 0 0 0 0 0 0 0 0 0 0 0 0 0 0 0 0 0 0 0 0 0 0 0 0 0 0 0 1 1 2 1 0 0 0 0 0 0 0 0 0 0 0
0 0 0 0 0 0 0 0 0 0 0 0 0 0 0 0 0 0 0 0 0 0 0 0 0 0 0 0 1 2 2 1 0 0 0 0 0 0 0 0 0 0 0
0 0 0 0 0 0 0 0 0 0 0 0 0 0 0 0 0 0 0 0 0 0 0 0 0 0 0 0 1 2 2 1 0 0 0 0 0 0 0 0 0 0 0
0 0 0 0 0 0 0 0 0 0 0 0 0 0 0 0 0 0 0 0 0 0 0 0 0 0 0 0 1 2 2 1 0 0 0 0 0 0 0 0 0 0 0
0 0 0 0 0 0 0 0 0 0 0 0 0 0 0 0 0 0 0 0 0 0 0 0 0 0 0 0 0 1 1 0 0 0 0 0 0 0 0 0 0 0 0
0 0 0 0 0 0 0 0 0 0 0 0 0 0 0 0 0 0 0 0 0 0 0 0 0 0 0 0 0 0 0 0 0 0 0 0 0 0 0 0 0 0 0

GEFSMA_con_probscp_114.txt.gz
Probability
33 38 43 43 38 37 40 42 39 35 32 28 19 11 7 5 3 2 4 5 2 0 1 2 2 1 1 2 2 2 2 1 1 1 1 0 0 0 0 0 0 0 0
29 34 40 42 39 39 41 43 41 40 36 30 22 15 11 9 7 6 6 7 4 1 2 4 5 5 4 2 3 5 6 5 3 3 2 1 0 0 0 0 0 0 0
23 28 34 38 38 39 41 43 43 41 37 31 26 21 19 16 13 12 13 13 9 5 4 7 12 13 9 6 7 10 12 10 7 5 3 2 0 0 0 0 0 0 0
16 22 27 31 33 35 37 39 41 39 34 32 30 27 25 23 20 21 22 20 17 15 12 14 20 22 16 13 15 17 18 16 12 9 5 2 0 0 0 0 0 0 0
12 16 20 22 25 27 28 31 35 35 34 33 29 26 25 25 27 29 28 25 24 25 23 24 27 26 22 23 25 26 25 22 18 15 11 6 3 2 1 0 0 0 0
10 12 13 14 15 17 18 21 25 28 29 28 24 21 20 23 28 31 28 27 27 26 26 29 32 30 30 34 36 37 35 32 29 25 19 12 8 6 4 1 0 0 0
7 9 9 10 9 9 10 14 16 18 19 20 19 17 16 17 21 23 24 26 26 24 24 29 36 41 43 44 44 45 45 43 40 35 28 19 14 11 8 4 1 0 0
4 5 6 7 7 6 7 9 10 11 11 13 15 15 13 12 13 14 18 24 28 29 28 28 35 46 54 54 50 49 51 50 46 41 34 27 20 16 12 7 3 1 0
1 2 3 4 5 5 5 5 6 7 8 9 12 13 11 9 9 11 14 21 28 33 32 29 31 41 54 63 58 49 48 49 46 41 37 33 28 21 14 9 5 2 1
0 0 1 1 2 4 5 4 4 6 7 8 11 11 10 9 9 8 9 12 18 27 32 32 32 38 50 63 63 48 37 38 41 41 39 38 34 27 19 12 6 2 1
0 0 0 0 1 2 3 3 4 6 8 9 9 9 8 7 6 5 4 5 8 16 26 35 40 43 46 52 53 40 25 22 28 34 37 37 37 34 27 17 8 3 2
1 0 0 0 0 1 2 3 4 5 5 6 7 6 6 5 4 3 2 2 4 9 20 34 43 44 42 42 38 27 17 12 14 21 26 29 34 36 33 24 15 9 6
1 0 0 0 0 1 2 3 3 2 2 2 3 4 4 4 4 3 3 3 3 5 13 24 32 36 38 40 32 19 12 8 4 7 13 19 25 31 30 26 21 15 11
1 0 0 0 0 1 2 3 3 2 2 1 2 3 4 3 2 2 4 4 3 4 7 12 19 27 37 41 31 22 17 8 0 1 4 9 15 19 19 18 17 13 10
0 0 0 0 0 1 2 3 3 3 4 3 3 4 5 4 2 1 3 4 4 3 3 6 11 20 30 33 26 27 26 11 0 0 0 3 6 7 7 7 7 5 4
0 0 0 0 0 1 2 3 3 3 4 5 6 5 5 5 3 2 1 2 3 3 4 7 9 14 21 22 23 31 31 18 6 2 0 0 1 1 1 1 1 1 0
0 0 0 0 0 0 1 1 2 2 3 5 5 3 2 3 4 3 1 1 1 3 5 7 9 11 15 19 25 32 32 26 15 5 0 0 0 0 0 0 0 0 0
0 0 0 0 0 0 0 0 1 1 1 2 2 1 1 2 3 4 2 1 1 2 4 6 7 10 14 18 23 29 31 28 20 6 0 0 0 0 0 0 0 0 0
0 0 0 0 0 0 0 0 0 0 0 0 0 0 1 2 3 3 3 2 2 2 3 4 6 9 13 15 18 22 26 27 17 5 0 0 0 0 0 0 0 0 0
0 0 0 0 0 0 0 0 0 0 0 0 0 0 1 1 2 2 1 1 2 3 4 5 6 9 12 14 16 18 21 22 17 9 4 3 1 1 0 0 0 0 0
0 0 0 0 0 0 0 0 0 0 0 0 0 0 0 0 0 0 0 0 1 2 4 4 6 10 14 16 16 15 15 16 17 15 13 9 6 4 3 1 0 0 0
0 0 0 0 0 0 0 0 0 0 0 0 0 0 0 0 0 0 0 0 0 1 2 3 4 8 13 17 17 14 12 13 14 16 17 15 12 10 7 3 1 0 0
0 0 0 0 0 0 0 0 0 0 0 0 0 0 0 0 0 0 0 0 0 0 1 1 2 5 10 15 17 14 12 11 13 14 13 13 13 12 8 3 1 0 0
0 0 0 0 0 0 0 0 0 0 0 0 0 0 0 0 0 0 0 0 0 0 0 0 0 2 5 10 14 14 12 11 11 13 11 9 9 10 7 3 1 0 0
0 0 0 0 0 0 0 0 0 0 0 0 0 0 0 0 0 0 0 0 0 0 0 0 0 0 1 3 7 11 12 10 9 12 12 8 6 6 5 2 1 0 0
0 0 0 0 0 0 0 0 0 0 0 0 0 0 0 0 0 0 0 0 0 0 0 0 0 0 0 0 2 7 11 10 9 11 12 8 5 4 2 1 0 0 0

GEFSMA_con_probscp_120.txt.gz
Probability
40 39 37 32 27 24 25 30 33 31 27 23 21 20 18 13 11 17 25 31 34 33 30 24 16 7 2 1 1 1 1 1 0 0 0 0 0 0 0 0 0 0 0
38 36 35 33 29 26 27 32 36 35 31 27 25 25 23 18 16 21 27 30 31 33 34 31 24 15 8 3 2 2 3 3 2 1 0 0 0 0 0 0 0 0 0
30 30 30 30 28 26 27 33 38 37 32 28 27 27 27 25 24 26 31 32 30 30 35 39 37 30 20 11 6 5 7 8 6 4 2 1 0 0 0 0 0 0 0
18 20 22 23 22 21 21 28 35 36 32 27 25 25 27 31 32 30 29 31 32 33 35 39 43 42 34 24 16 14 14 13 12 10 7 4 1 0 0 0 0 0 0
9 11 14 17 17 15 16 22 29 31 27 22 19 18 23 30 35 32 28 28 32 37 37 36 40 42 39 36 31 29 26 23 20 18 14 9 4 1 0 0 0 0 0
6 6 9 13 15 14 15 18 21 20 17 14 11 12 16 21 27 30 28 27 30 35 36 37 41 41 38 40 43 44 39 33 31 28 23 17 11 5 2 0 0 0 0
5 5 5 9 11 12 12 12 11 10 10 10 9 9 10 13 18 24 26 26 28 32 35 38 44 45 39 36 41 48 49 44 41 38 32 26 21 14 6 1 0 0 0
4 4 5 6 7 7 6 5 5 6 7 8 9 8 8 9 12 16 19 21 25 31 33 33 38 43 42 38 37 43 52 57 53 47 42 36 30 22 12 4 1 0 0
1 2 3 3 4 4 3 3 3 5 6 7 8 8 7 8 9 12 16 19 23 27 26 23 24 29 36 42 39 36 45 59 63 58 53 48 40 29 19 10 5 1 0
0 0 1 1 2 3 3 3 2 4 5 6 7 8 7 7 7 9 13 16 18 20 17 14 14 20 28 38 41 36 33 43 57 64 64 60 50 39 29 20 11 5 2
1 0 0 0 1 1 2 2 1 2 4 4 5 6 7 7 6 6 7 9 11 11 10 9 12 19 25 31 35 31 21 22 36 55 66 68 62 52 43 32 19 11 7
2 1 0 0 0 0 1 1 0 0 1 2 3 5 7 7 5 3 2 3 4 5 6 9 13 18 22 25 24 18 11 9 16 35 55 67 69 63 52 40 29 20 17
2 2 1 0 1 0 0 1 1 0 0 1 2 4 6 6 5 3 1 1 1 2 3 6 11 14 17 19 16 9 5 3 5 16 33 49 59 57 48 40 35 28 23
1 1 0 0 0 0 0 1 2 1 0 0 1 3 5 5 3 2 1 0 0 1 2 5 9 12 15 16 13 8 4 2 1 4 11 23 33 35 31 28 27 24 21
0 0 0 0 0 0 0 1 2 1 1 1 1 2 3 4 3 2 1 1 1 1 2 5 8 10 12 11 9 8 7 3 0 0 2 5 11 13 13 11 11 10 10
0 0 0 0 0 0 0 0 1 1 1 1 1 1 1 2 2 2 2 2 1 0 1 3 5 6 6 5 4 7 7 3 0 0 0 0 1 3 3 2 1 1 1
0 0 0 0 0 0 0 0 0 1 1 0 0 0 0 1 1 2 1 1 1 0 0 1 2 3 3 2 3 4 5 3 1 0 0 0 0 0 0 0 0 0 0
0 0 0 0 0 0 0 0 0 0 0 0 0 0 0 0 1 1 1 1 0 0 0 0 1 1 1 1 2 4 4 3 2 0 0 0 0 0 0 0 0 0 0
0 0 0 0 0 0 0 0 0 0 0 0 0 0 0 0 0 0 1 1 0 0 0 0 0 1 1 1 2 4 4 4 2 0 0 0 0 0 0 0 0 0 0
0 0 0 0 0 0 0 0 0 0 0 0 0 0 0 0 0 0 0 0 0 0 0 0 1 1 1 2 3 3 3 2 1 0 0 0 0 0 0 0 0 0 0
0 0 0 0 0 0 0 0 0 0 0 0 0 0 0 0 0 0 0 0 0 0 0 0 1 1 2 3 3 2 2 1 1 0 0 0 0 0 0 0 0 0 0
1 1 0 0 0 0 0 0 0 0 0 0 0 0 0 0 0 0 0 0 0 0 0 0 0 0 1 2 2 2 1 0 0 1 0 0 0 0 0 0 0 0 0
3 2 0 0 0 0 0 0 0 0 0 0 0 0 0 0 0 0 0 0 0 0 0 0 0 0 0 1 1 1 1 0 0 0 0 0 0 0 0 0 0 0 0
4 2 1 1 1 1 0 0 0 0 0 0 0 0 0 0 0 0 0 0 0 0 0 0 0 0 0 0 0 0 0 0 0 0 0 0 0 0 0 0 0 0 0
5 3 2 2 2 1 0 0 0 0 0 0 0 0 0 0 0 0 0 0 0 0 0 0 0 0 0 0 0 0 0 0 0 0 0 0 0 0 0 0 0 0 0
5 4 2 3 2 1 0 0 0 0 0 0 0 0 0 0 0 0 0 0 0 0 0 0 0 0 0 0 0 0 0 0 0 0 0 0 0 0 0 0 0 0 0

GEFSMA_con_probscp_126.txt.gz
Probability
2 2 2 3 3 3 4 5 4 4 5 6 7 7 7 8 8 6 4 6 11 13 11 8 5 4 3 1 0 0 0 0 0 0 0 0 0 0 0 0 0 0 0
1 1 1 1 1 2 3 3 3 2 2 3 4 4 4 6 6 5 3 5 9 11 11 9 7 6 4 2 1 1 0 0 0 0 0 0 0 0 0 0 0 0 0
1 0 0 0 0 1 1 1 1 1 0 0 1 2 2 2 3 2 2 2 3 6 8 9 10 10 8 5 3 2 2 2 1 0 0 0 0 0 0 0 0 0 0
2 1 1 1 1 2 2 1 0 1 1 0 1 2 1 1 1 2 1 0 0 2 4 8 14 17 14 9 5 3 2 3 3 1 1 1 0 0 0 0 0 0 0
3 3 2 2 3 3 2 1 0 1 1 1 1 2 1 1 2 2 1 0 0 0 2 8 16 20 19 15 10 5 3 3 4 4 3 3 2 1 0 0 0 0 0
3 3 3 3 3 2 2 1 1 1 2 1 1 1 1 0 1 1 0 0 0 1 3 8 16 19 19 19 17 12 8 8 9 9 8 7 6 3 0 0 0 0 0
2 2 2 2 1 1 1 2 2 2 2 1 0 0 0 0 0 0 0 0 0 2 3 5 12 18 19 19 21 20 17 16 17 17 15 12 10 7 3 0 0 0 0
1 1 1 1 0 0 0 1 2 3 2 1 0 0 0 0 0 0 1 1 1 2 2 3 9 16 18 18 18 19 21 24 25 25 23 20 17 14 8 3 1 0 0
0 0 0 0 0 0 0 0 1 1 1 1 0 0 0 0 0 0 1 2 2 1 1 2 6 12 16 15 13 12 17 25 30 30 30 28 24 20 15 8 3 0 0
0 0 0 0 0 0 0 0 0 0 0 0 0 0 0 0 0 0 1 1 1 1 0 2 4 9 13 13 10 7 10 19 27 32 37 39 34 26 21 15 8 2 0
0 0 0 0 0 0 0 0 0 0 0 0 0 0 0 0 0 0 0 0 0 0 1 2 4 7 9 9 8 6 7 11 17 25 36 44 45 38 29 22 13 5 2
0 0 0 0 0 0 0 0 0 0 0 0 0 0 0 0 0 0 0 0 0 0 1 2 3 3 4 5 6 6 5 5 7 13 24 39 49 50 40 29 20 11 6
0 0 0 0 0 0 0 0 0 0 0 0 0 0 0 0 0 0 0 0 0 0 0 1 1 1 1 2 3 3 3 2 2 4 11 23 39 49 48 38 28 20 14
0 0 0 0 0 0 0 0 0 0 0 0 0 0 0 0 0 0 0 0 0 0 0 0 0 0 0 1 1 1 2 2 1 1 4 10 21 33 37 34 28 23 20
0 0 0 0 0 0 0 0 0 0 0 0 0 0 0 0 0 0 0 0 0 0 0 0 0 0 0 0 0 1 2 2 0 0 1 3 7 13 16 15 14 13 13
0 0 0 0 0 0 0 0 0 0 0 0 0 0 0 0 0 0 0 0 0 0 0 0 0 0 0 0 0 1 1 1 0 0 0 0 1 3 3 2 2 3 3
0 0 0 0 0 0 0 0 0 0 0 0 0 0 0 0 0 0 0 0 0 0 0 0 0 0 0 0 0 0 0 0 0 0 0 0 0 0 0 0 0 0 0
0 0 0 0 0 0 0 0 0 0 0 0 0 0 0 0 0 0 0 0 0 0 0 0 0 0 0 0 0 0 0 0 0 0 0 0 0 0 0 0 0 0 0
0 0 0 0 0 0 0 0 0 0 0 0 0 0 0 0 0 0 0 0 0 0 0 0 0 0 0 0 0 0 0 0 0 0 0 0 0 0 0 0 0 0 0
0 0 0 0 0 0 0 0 0 0 0 0 0 0 0 0 0 0 0 0 0 0 0 0 0 0 0 0 0 0 0 0 0 0 0 0 0 0 0 0 0 0 0
0 0 0 0 0 0 0 0 0 0 0 0 0 0 0 0 0 0 0 0 0 0 0 0 0 0 0 0 0 0 0 0 0 0 0 0 0 0 0 0 0 0 0
0 0 0 0 0 0 0 0 0 0 0 0 0 0 0 0 0 0 0 0 0 0 0 0 0 0 0 0 0 0 0 0 0 0 0 0 0 0 0 0 0 0 0
0 0 0 0 0 0 0 0 0 0 0 0 0 0 0 0 0 0 0 0 0 0 0 0 0 0 0 0 0 0 0 0 0 0 0 0 0 0 0 0 0 0 0
0 0 0 0 0 0 0 0 0 0 0 0 0 0 0 0 0 0 0 0 0 0 0 0 0 0 0 0 0 0 0 0 0 0 0 0 0 0 0 0 0 0 0
0 0 0 0 0 0 0 0 0 0 0 0 0 0 0 0 0 0 0 0 0 0 0 0 0 0 0 0 0 0 0 0 0 0 0 0 0 0 0 0 0 0 0
0 0 0 0 0 0 0 0 0 0 0 0 0 0 0 0 0 0 0 0 0 0 0 0 0 0 0 0 0 0 0 0 0 0 0 0 0 0 0 0 0 0 0

GEFSMA_con_probscp_132.txt.gz
Probability
0 0 0 0 0 0 0 0 1 2 3 3 3 2 3 3 1 0 0 0 0 0 1 2 2 2 1 0 0 0 0 0 0 0 0 0 0 0 0 0 0 0 0
0 0 0 0 0 0 0 0 0 1 2 3 3 4 4 3 2 0 0 1 1 1 1 1 1 1 1 0 0 0 0 0 0 0 0 0 0 0 0 0 0 0 0
0 0 0 0 0 0 0 0 0 0 1 2 3 3 4 3 1 1 1 3 5 4 3 2 1 1 1 0 0 0 0 0 0 0 0 0 0 0 0 0 0 0 0
0 0 0 0 0 1 1 1 0 0 0 1 1 1 1 1 1 1 3 4 6 8 6 4 3 2 0 0 0 0 1 2 2 2 1 1 0 0 0 0 0 0 0
0 1 1 1 1 2 2 2 1 0 0 0 0 0 0 0 0 1 2 3 5 7 6 5 4 3 1 1 1 1 2 3 3 3 3 2 1 1 1 1 0 0 0
1 1 2 2 2 3 3 3 1 0 0 0 0 0 0 0 0 0 0 1 4 6 6 6 6 6 4 3 2 1 1 2 3 4 3 3 3 3 2 1 0 0 0
0 1 1 1 2 2 2 2 2 1 1 2 1 0 0 0 0 0 0 1 3 6 6 6 6 9 10 8 5 3 2 2 4 6 5 3 4 4 3 2 0 0 0
0 0 0 0 1 1 1 1 2 2 2 2 2 1 0 0 0 0 0 0 2 3 4 4 4 8 12 13 10 8 6 4 5 8 7 5 5 6 4 2 1 0 0
0 0 0 0 0 0 0 0 1 1 2 2 1 1 0 0 0 0 0 1 1 1 1 2 2 3 7 12 14 11 8 6 6 7 8 8 9 9 8 5 3 2 1
0 0 0 0 0 0 0 0 0 0 0 0 0 0 0 0 0 0 0 1 2 1 1 0 0 1 3 8 11 9 6 6 6 7 8 10 13 14 14 11 7 3 1
0 0 0 0 0 0 0 0 0 0 0 0 0 0 0 0 0 0 0 0 1 1 0 0 0 1 2 4 5 5 3 3 5 7 7 9 13 18 20 16 8 3 1
0 0 0 0 0 0 0 0 0 0 0 0 0 0 0 0 0 0 0 0 0 0 0 0 0 1 1 1 2 2 1 1 3 4 5 7 12 18 21 19 13 6 2
0 0 0 0 0 0 0 0 0 0 0 0 0 0 0 0 0 0 0 0 0 0 0 0 0 0 0 0 1 1 0 0 1 2 3 6 8 12 16 20 20 14 9
0 0 0 0 0 0 0 0 0 0 0 0 0 0 0 0 0 0 0 0 0 0 0 0 0 0 0 0 0 1 1 0 0 1 2 3 5 6 9 15 20 19 16
0 0 0 0 0 0 0 0 0 0 0 0 0 0 0 0 0 0 0 0 0 0 0 0 0 0 0 0 0 0 0 0 0 0 0 1 2 3 3 6 10 12 11
0 0 0 0 0 0 0 0 0 0 0 0 0 0 0 0 0 0 0 0 0 0 0 0 0 0 0 0 0 0 0 0 0 0 0 0 1 1 1 1 2 3 3
0 0 0 0 0 0 0 0 0 0 0 0 0 0 0 0 0 0 0 0 0 0 0 0 0 0 0 0 0 0 0 0 0 0 0 0 0 0 0 0 0 0 0
0 0 0 0 0 0 0 0 0 0 0 0 0 0 0 0 0 0 0 0 0 0 0 0 0 0 0 0 0 0 0 0 1 0 0 0 0 0 0 0 0 0 0
0 0 0 0 0 0 0 0 0 0 0 0 0 0 0 0 0 0 0 0 0 0 0 0 0 0 0 0 0 0 0 0 0 0 0 0 0 0 0 0 0 0 0
0 0 0 0 0 0 0 0 0 0 0 0 0 0 0 0 0 0 0 0 0 0 0 0 0 0 0 0 1 0 0 0 0 0 0 0 0 0 0 0 0 0 0
0 0 0 0 0 0 0 0 0 0 0 0 0 0 0 0 0 0 0 0 0 0 0 0 0 0 0 0 0 0 0 0 0 0 0 0 0 0 0 0 0 0 0
0 0 0 0 0 0 0 0 0 0 0 0 0 0 0 0 0 0 0 0 0 0 0 0 0 0 0 0 0 0 0 0 0 0 0 0 0 0 0 0 0 0 0
0 0 0 0 0 0 0 0 0 0 0 0 0 0 0 0 0 0 0 0 0 0 0 0 0 0 0 0 0 0 0 0 0 0 0 0 0 0 0 0 0 0 0
0 0 0 0 0 0 0 0 0 0 0 0 0 0 0 0 0 0 0 0 0 0 0 0 0 0 0 0 0 0 0 0 0 0 0 0 0 0 0 0 0 0 0
0 0 0 0 0 0 0 0 0 0 0 0 0 0 0 0 0 0 0 0 0 0 0 0 0 0 0 0 0 0 0 0 0 0 1 0 0 0 0 0 0 0 0
0 0 0 0 0 0 0 0 0 0 0 0 0 0 0 0 0 0 0 0 0 0 0 0 0 0 0 0 0 0 0 0 0 0 1 0 0 0 0 0 0 0 0